{"data":{"norad_id":54183,"epoch":"2026-05-24T22:28:12.837216Z","epoch_age_seconds":84515,"freshness":"FRESH","line1":"1 54183U 22141AC  26144.93625969 -.00000445  00000+0 -98814-5 0  9996","line2":"2 54183  53.2144  21.4557 0001088  81.9385 278.1731 15.08838715197379","mean_motion":15.08838715,"eccentricity":0.0001088,"inclination_deg":53.2144,"raan_deg":21.4557,"arg_perigee_deg":81.9385,"mean_anomaly_deg":278.1731,"bstar":-9.8814e-6,"rev_number":19737,"period_min":95.437635957002,"perigee_km":538.99465088416,"apogee_km":540.49998251148,"semimajor_km":6917.8843166978,"source":"CELESTRAK","updated_at":"2026-05-25T13:38:17.680739Z"}}